Date,TemperatureHighF,TemperatureAvgF,TemperatureLowF,DewpointHighF,DewpointAvgF,DewpointLowF,HumidityHigh,HumidityAvg,HumidityLow,PressureMaxIn,PressureMinIn,WindSpeedMaxMPH,WindSpeedAvgMPH,GustSpeedMaxMPH,PrecipitationSumIn
2013-4-1,82.5,67.2,48.8,37.3,30.1,23.2,48,26,16,29.95,29.79,19,3,19,0.00
2013-4-2,78.8,63.8,45.5,28.8,23.6,16.7,45,24,11,29.91,29.79,24,4,24,0.00
2013-4-3,82.5,65.2,44.9,31.1,27.2,22.5,48,26,13,29.99,29.87,16,2,16,0.00
2013-4-4,89.1,69.7,47.8,33.2,24.3,10.0,50,23,6,30.02,29.83,15,2,15,0.00
2013-4-5,87.5,72.5,53.7,32.8,28.6,23.0,38,21,12,29.90,29.74,24,4,24,0.00
2013-4-6,85.7,71.1,51.8,37.0,31.2,24.4,47,25,12,29.89,29.72,18,3,18,0.00
2013-4-7,86.8,39.0,63.5,35.6,-34.4,-99.9,32,9,11,29.80,29.61,20,3,20,0.00
2013-4-8,82.9,69.2,47.2,42.3,35.4,26.3,83,31,13,29.65,29.32,38,8,38,0.05
2013-4-9,64.8,54.4,45.5,46.3,35.5,23.5,93,55,23,29.87,29.49,24,5,24,0.09
2013-4-10,68.5,56.1,39.8,34.0,30.0,24.0,75,40,20,29.97,29.87,21,4,21,0.00
2013-4-11,80.0,61.5,40.6,34.3,29.7,22.5,71,35,14,29.97,29.72,18,-53,18,0.00
2013-4-12,83.0,65.5,48.2,33.2,27.7,19.8,47,26,11,29.76,29.66,18,2,18,0.00
2013-4-13,85.8,68.6,46.8,31.6,26.9,19.8,53,24,10,29.81,29.64,19,4,19,0.00
2013-4-14,85.5,70.7,53.7,38.4,31.5,23.5,45,26,11,29.73,29.58,20,5,20,0.00
2013-4-15,87.1,73.8,62.2,40.5,32.7,23.8,37,24,11,29.71,29.58,26,6,26,0.00
2013-4-16,86.5,73.2,60.3,40.9,32.8,25.6,39,24,12,29.73,29.59,26,7,26,0.00
2013-4-17,67.5,61.0,52.5,41.8,27.0,10.3,53,30,14,29.95,29.67,26,7,26,0.00
2013-4-18,73.3,56.2,36.7,18.2,13.1,6.7,42,20,9,30.10,29.95,19,2,19,0.00
2013-4-19,81.7,61.8,37.9,15.9,5.0,-8.8,35,14,3,30.13,29.89,23,3,23,0.00
2013-4-20,85.0,65.3,40.8,22.0,13.4,3.9,32,15,6,29.94,29.81,22,3,22,0.00
2013-4-21,90.1,69.8,46.9,26.1,18.9,8.4,38,18,5,29.99,29.83,16,3,16,0.00
2013-4-22,91.8,72.9,50.9,30.0,19.4,5.3,34,16,4,29.90,29.68,22,3,22,0.00
2013-4-23,88.8,72.2,50.7,28.9,21.9,15.6,34,17,7,29.80,29.68,21,3,21,0.00
2013-4-24,90.8,75.0,53.3,34.8,25.5,16.0,38,18,7,29.84,29.71,18,3,18,0.00
2013-4-25,85.5,73.2,57.6,33.4,27.3,9.8,33,20,7,29.93,29.75,28,5,28,0.00
2013-4-26,88.0,68.6,45.6,34.6,28.3,24.4,50,25,11,30.04,29.92,16,3,18,0.00
2013-4-27,91.5,73.1,50.1,33.0,25.5,12.7,44,20,6,30.00,29.79,15,3,15,0.00
2013-4-28,95.0,76.2,52.5,33.3,19.8,9.0,38,15,5,29.83,29.64,19,3,19,0.00
2013-4-29,98.3,77.9,53.0,30.2,17.4,3.2,33,13,3,29.74,29.55,20,-32,20,0.00
2013-4-30,96.8,79.2,56.1,32.9,20.5,11.3,30,13,5,29.70,29.56,24,4,24,0.00